When you browse on this site, cookies collect data to enhance your experience and personalize the content and advertising you see.
Visit our Privacy Policy to learn more. By continuing to use the site, you agree to this use of cookies and data.
  • In Hungary
  • List of Countries
  • For 7 days
  • Water Temperature
  • Satellite Maps
  • Weather Map
  • News
  • Weather Widgets
  • user-avatar
    Login

    Hourly Weather Uchebne

    Today, 11 December, Tuesday

    Time Temperature Precipitation Wind Pressure Humidity
    00:00 +4°C° 0 mm 2 mps 725 mmHg 94%
    01:00 +4°C° 0 mm 2 mps 725 mmHg 94%
    02:00 +3°C° 0 mm 3 mps 724 mmHg 95%
    03:00 +3°C° 0.1 mm 4 mps 724 mmHg 95%
    04:00 +3°C° 0.1 mm 4 mps 723 mmHg 95%
    05:00 +3°C° 0.1 mm 5 mps 723 mmHg 95%
    06:00 +3°C° 1.9 mm 6 mps 722 mmHg 95%
    07:00 +3°C° 1.9 mm 6 mps 722 mmHg 96%
    08:00 +3°C° 1.9 mm 7 mps 721 mmHg 96%
    09:00 +3°C° 2 mm 6 mps 721 mmHg 96%
    10:00 +4°C° 2 mm 6 mps 720 mmHg 95%
    11:00 +5°C° 2 mm 5 mps 720 mmHg 95%
    12:00 +5°C° 2.1 mm 5 mps 719 mmHg 95%
    13:00 +5°C° 2.1 mm 5 mps 719 mmHg 95%
    14:00 +5°C° 2.1 mm 5 mps 719 mmHg 96%
    15:00 +3°C° 0.5 mm 5 mps 719 mmHg 95%
    16:00 +3°C° 0.5 mm 5 mps 719 mmHg 94%
    17:00 +2°C° 0.5 mm 5 mps 720 mmHg 94%
    18:00 +2°C° 0.5 mm 7 mps 720 mmHg 92%
    19:00 0°C° 0.5 mm 8 mps 721 mmHg 90%
    20:00 0°C° 0.5 mm 10 mps 721 mmHg 88%
    21:00 0°C° 0.5 mm 10 mps 722 mmHg 87%
    22:00 -2°C° 0.5 mm 10 mps 722 mmHg 86%
    23:00 -2°C° 0.5 mm 10 mps 723 mmHg 85%

    Tomorrow, 12 December, Wednesday

    Time Temperature Precipitation Wind Pressure Humidity
    00:00 -2°C° 0.3 mm 10 mps 724 mmHg 85%
    01:00 -1°C° 0.3 mm 11 mps 724 mmHg 84%
    02:00 -1°C° 0.3 mm 11 mps 725 mmHg 83%
    03:00 0°C° 0.1 mm 10 mps 725 mmHg 83%
    04:00 0°C° 0.1 mm 10 mps 726 mmHg 82%
    05:00 0°C° 0.1 mm 9 mps 726 mmHg 82%
    06:00 -1°C° 0 mm 8 mps 727 mmHg 82%
    07:00 -1°C° 0 mm 8 mps 727 mmHg 83%
    08:00 -1°C° 0 mm 7 mps 728 mmHg 83%
    09:00 0°C° 0 mm 7 mps 728 mmHg 81%
    10:00 0°C° 0 mm 7 mps 729 mmHg 79%
    11:00 +1°C° 0 mm 6 mps 729 mmHg 77%
    12:00 +1°C° 0 mm 6 mps 729 mmHg 76%
    13:00 +1°C° 0 mm 5 mps 729 mmHg 75%
    14:00 +1°C° 0 mm 4 mps 730 mmHg 74%
    15:00 +1°C° 0 mm 4 mps 730 mmHg 77%
    16:00 0°C° 0 mm 4 mps 730 mmHg 79%
    17:00 +1°C° 0 mm 3 mps 730 mmHg 82%
    18:00 +1°C° 0 mm 3 mps 731 mmHg 82%
    19:00 +1°C° 0 mm 3 mps 731 mmHg 82%
    20:00 +1°C° 0 mm 3 mps 731 mmHg 82%
    21:00 0°C° 0 mm 3 mps 731 mmHg 81%
    22:00 0°C° 0 mm 3 mps 732 mmHg 81%
    23:00 0°C° 0 mm 3 mps 732 mmHg 80%

    Day after tomorrow, 13 December, Thursday

    Time Temperature Precipitation Wind Pressure Humidity
    00:00 0°C° 0 mm 3 mps 732 mmHg 80%
    01:00 0°C° 0 mm 3 mps 733 mmHg 80%
    02:00 0°C° 0 mm 3 mps 733 mmHg 80%
    03:00 0°C° 0 mm 3 mps 733 mmHg 80%
    04:00 0°C° 0 mm 3 mps 733 mmHg 80%
    05:00 0°C° 0 mm 3 mps 733 mmHg 80%
    06:00 0°C° 0 mm 3 mps 734 mmHg 80%
    07:00 0°C° 0 mm 3 mps 734 mmHg 80%
    08:00 0°C° 0 mm 3 mps 735 mmHg 80%
    09:00 0°C° 0 mm 4 mps 735 mmHg 75%
    10:00 +1°C° 0 mm 4 mps 735 mmHg 71%
    11:00 +4°C° 0 mm 4 mps 735 mmHg 67%
    12:00 +3°C° 0.1 mm 5 mps 735 mmHg 67%
    13:00 +3°C° 0.1 mm 5 mps 735 mmHg 67%
    14:00 +3°C° 0.1 mm 5 mps 735 mmHg 67%
    15:00 +2°C° 0 mm 5 mps 736 mmHg 70%
    16:00 +1°C° 0 mm 5 mps 736 mmHg 74%
    17:00 +1°C° 0 mm 4 mps 736 mmHg 78%
    18:00 0°C° 0 mm 4 mps 736 mmHg 79%
    19:00 0°C° 0 mm 4 mps 736 mmHg 79%
    20:00 0°C° 0 mm 4 mps 736 mmHg 80%
    21:00 0°C° 0 mm 4 mps 736 mmHg 80%
    22:00 0°C° 0 mm 4 mps 736 mmHg 80%
    23:00 -1°C° 0 mm 4 mps 736 mmHg 80%

    14 December, Friday

    Time Temperature Precipitation Wind Pressure Humidity
    00:00 0°C° 0 mm 3 mps 736 mmHg 80%
    01:00 0°C° 0 mm 3 mps 736 mmHg 81%
    02:00 0°C° 0 mm 3 mps 736 mmHg 81%
    03:00 +1°C° 0 mm 3 mps 736 mmHg 81%
    04:00 +1°C° 0 mm 3 mps 736 mmHg 81%
    05:00 +1°C° 0 mm 3 mps 736 mmHg 82%
    06:00 +1°C° 0.1 mm 3 mps 736 mmHg 82%
    07:00 +1°C° 0.1 mm 3 mps 736 mmHg 82%
    08:00 +2°C° 0.1 mm 3 mps 736 mmHg 83%
    09:00 +2°C° 0.3 mm 3 mps 735 mmHg 83%
    10:00 +3°C° 0.3 mm 3 mps 735 mmHg 83%
    11:00 +3°C° 0.3 mm 3 mps 735 mmHg 83%
    12:00 +3°C° 0.5 mm 3 mps 735 mmHg 84%
    13:00 +3°C° 0.5 mm 3 mps 735 mmHg 85%
    14:00 +3°C° 0.5 mm 3 mps 735 mmHg 87%
    15:00 +3°C° 0.7 mm 3 mps 735 mmHg 89%
    16:00 +1°C° 0.7 mm 4 mps 735 mmHg 91%
    17:00 +1°C° 0.7 mm 4 mps 735 mmHg 93%
    18:00 +1°C° 0.6 mm 4 mps 735 mmHg 94%
    19:00 +1°C° 0.6 mm 4 mps 736 mmHg 94%
    20:00 0°C° 0.6 mm 4 mps 736 mmHg 95%
    21:00 +1°C° 0.2 mm 3 mps 736 mmHg 94%
    22:00 +1°C° 0.2 mm 3 mps 736 mmHg 94%
    23:00 +2°C° 0.2 mm 2 mps 737 mmHg 93%

    15 December, Saturday

    Time Temperature Precipitation Wind Pressure Humidity
    00:00 +2°C° 0 mm 2 mps 737 mmHg 93%
    01:00 +2°C° 0 mm 2 mps 737 mmHg 92%
    02:00 +1°C° 0 mm 2 mps 738 mmHg 92%
    03:00 +1°C° 0 mm 2 mps 738 mmHg 91%
    04:00 +1°C° 0 mm 2 mps 738 mmHg 91%
    05:00 +1°C° 0 mm 2 mps 739 mmHg 90%
    06:00 +1°C° 0 mm 2 mps 739 mmHg 90%
    07:00 +1°C° 0 mm 2 mps 739 mmHg 89%
    08:00 +1°C° 0 mm 2 mps 740 mmHg 89%
    09:00 +2°C° 0 mm 2 mps 740 mmHg 84%
    10:00 +3°C° 0 mm 2 mps 740 mmHg 80%
    11:00 +4°C° 0 mm 2 mps 741 mmHg 76%
    12:00 +4°C° 0 mm 2 mps 741 mmHg 74%
    13:00 +5°C° 0 mm 2 mps 741 mmHg 72%
    14:00 +5°C° 0 mm 2 mps 741 mmHg 71%
    15:00 +4°C° 0 mm 2 mps 741 mmHg 74%
    16:00 +3°C° 0 mm 2 mps 741 mmHg 78%
    17:00 +2°C° 0 mm 2 mps 741 mmHg 82%
    18:00 +2°C° 0 mm 2 mps 741 mmHg 83%
    19:00 +1°C° 0 mm 3 mps 741 mmHg 83%
    20:00 +1°C° 0 mm 3 mps 741 mmHg 84%
    21:00 0°C° 0 mm 3 mps 741 mmHg 83%
    22:00 0°C° 0 mm 3 mps 741 mmHg 83%
    23:00 -1°C° 0 mm 4 mps 740 mmHg 83%

    16 December, Sunday

    Time Temperature Precipitation Wind Pressure Humidity
    00:00 0°C° 0 mm 3 mps 740 mmHg 85%
    01:00 0°C° 0 mm 3 mps 740 mmHg 86%
    02:00 0°C° 0 mm 3 mps 740 mmHg 88%
    03:00 0°C° 0 mm 3 mps 739 mmHg 90%
    04:00 0°C° 0 mm 3 mps 739 mmHg 92%
    05:00 +1°C° 0 mm 3 mps 739 mmHg 93%
    06:00 0°C° 0 mm 4 mps 739 mmHg 94%
    07:00 0°C° 0 mm 4 mps 739 mmHg 94%
    08:00 0°C° 0 mm 4 mps 739 mmHg 94%
    09:00 +1°C° 0.1 mm 5 mps 739 mmHg 91%
    10:00 +2°C° 0.1 mm 5 mps 739 mmHg 88%
    11:00 +3°C° 0.1 mm 5 mps 739 mmHg 86%
    12:00 +3°C° 0.1 mm 6 mps 738 mmHg 83%
    13:00 +3°C° 0.1 mm 6 mps 738 mmHg 81%
    14:00 +3°C° 0.1 mm 6 mps 737 mmHg 79%
    15:00 +2°C° 0 mm 6 mps 737 mmHg 80%
    16:00 +2°C° 0 mm 6 mps 737 mmHg 81%
    17:00 +1°C° 0 mm 6 mps 737 mmHg 82%
    18:00 +1°C° 0.1 mm 6 mps 737 mmHg 83%
    19:00 -1°C° 0.1 mm 6 mps 736 mmHg 83%
    20:00 -1°C° 0.1 mm 6 mps 736 mmHg 84%
    21:00 -1°C° 0.3 mm 6 mps 736 mmHg 84%
    22:00 -1°C° 0.3 mm 6 mps 736 mmHg 85%
    23:00 0°C° 0.3 mm 5 mps 735 mmHg 85%
    Show more